This demonstration page uses our WeatherBlox Daily Observations layout. Learn more.

Left ArrowRight Arrow

Hourly Observations for November 25, 2020

Temp ( °F °C ) Dew Point ( °F °C ) Humidity (%) Winds ( mph kmh ) Pressure ( in mb ) Visibility ( mi km ) Precip ( " mm )
12:54 am 00:54 Cloudy 35 1.7 29 -1.7 78 78 N 12 19 29.87 1011 10 16.0934 0 0
1:54 am 01:54 Cloudy 36 2.2 30 -1.1 79 79 N 16 26 29.87 1011 10 16.0934 0 0
2:54 am 02:54 Cloudy 36 2.2 30 -1.1 79 79 NNW 16 26 29.87 1012 10 16.0934 0 0
3:40 am 03:40 Cloudy 35 1.7 29 -1.7 78 78 NNW 17 28 29.89 1012 10 16.0934 0 0
3:54 am 03:54 Cloudy 35 1.7 29 -1.7 78 78 NNW 16 26 29.86 1011 10 16.0934 0 0
4:24 am 04:24 Cloudy 35 1.7 29 -1.7 78 78 N 16 26 29.9 1013 10 16.0934 0 0
4:54 am 04:54 Cloudy 35 1.7 29 -1.7 78 78 NNW 14 22 29.88 1012 10 16.0934 0 0
5:54 am 05:54 Cloudy 34 1.1 28 -2.2 79 79 NNW 14 22 29.92 1013 10 16.0934 0 0
6:54 am 06:54 Cloudy 34 1.1 29 -1.7 82 82 NNW 12 19 29.95 1014 10 16.0934 0 0
7:54 am 07:54 Cloudy 34 1.1 29 -1.7 82 82 NNW 12 19 29.97 1015 9 14.48406 0 0
8:40 am 08:40 Cloudy 35 1.7 29 -1.7 78 78 N 12 19 30 1016 9 14.48406 0 0
8:54 am 08:54 Cloudy 35 1.7 29 -1.7 78 78 N 12 19 29.98 1015 9 14.48406 0 0
9:29 am 09:29 Cloudy 35 1.7 28 -2.2 76 76 N 16 26 30.01 1016 10 16.0934 0 0
9:54 am 09:54 Cloudy 34 1.1 28 -2.2 79 79 N 16 26 30 1016 10 16.0934 0 0
10:54 am 10:54 Cloudy 35 1.7 28 -2.2 76 76 NNW 14 22 29.99 1016 10 16.0934 0 0
11:54 am 11:54 Cloudy 35 1.7 28 -2.2 76 76 N 12 19 29.99 1016 10 16.0934 0 0
12:54 pm 12:54 Cloudy 36 2.2 27 -2.8 70 70 N 12 19 29.97 1015 10 16.0934 0 0
1:54 pm 13:54 Cloudy 36 2.2 28 -2.2 73 73 WNW 7 11 29.96 1015 10 16.0934 0 0
2:04 pm 14:04 Cloudy 36 2.2 27 -2.8 70 70 W 5 7 29.99 1016 10 16.0934 0 0
2:54 pm 14:54 Partly Cloudy 38 3.3 28 -2.2 68 68 VRB 3 6 29.96 1015 10 16.0934 0 0
3:54 pm 15:54 Sunny 37 2.8 28 -2.2 70 70 WSW 6 9 29.96 1015 10 16.0934 0 0
4:54 pm 16:54 Sunny 36 2.2 28 -2.2 73 73 W 5 7 29.95 1014 9 14.48406 0 0
6:54 pm 18:54 Clear 29 -1.7 25 -3.9 85 85 S 5 7 29.97 1015 8 12.87472 0 0
7:54 pm 19:54 Clear 28 -2.2 25 -3.9 88 88 SSE 6 9 29.98 1015 8 12.87472 0 0
8:54 pm 20:54 Clear 29 -1.7 26 -3.3 89 89 S 6 9 29.97 1015 8 12.87472 0 0
9:54 pm 21:54 Clear 27 -2.8 23 -5 85 85 S 6 9 29.97 1015 7 11.26538 0 0
10:54 pm 22:54 Clear 27 -2.8 24 -4.4 89 89 SSE 6 9 29.97 1015 7 11.26538 0 0
11:54 pm 23:54 Clear 27 -2.8 24 -4.4 89 89 SSE 7 11 29.98 1015 7 11.26538 0 0

Powered by AerisWeather